SVR263 UUDD-USSS

Flight info

Callsign SVR263
Flight time 2h 4m
Altitude 37000
Route K0804F370 KOGOM4Q KOGOM L94 EKPIR M864 INKEB L94 NAMER T765 GEMKI L94 LOMBI LOMBI6S
Aircraft A319/M-SDE3FGHIRWY/LB1

Departure

Time 2026-05-04 09:42
Airport Domodedovo International Airport (UUDD)

Arrival

Time 2026-05-04 11:46
Airport Koltsovo Airport (USSS)
Time Latitude Longitude Altitude Speed Heading
2026-05-04 09:14 55.41002 37.90551 563 ft 0 kts 323°
2026-05-04 09:37 55.41023 37.90177 569 ft 12 kts 237°
2026-05-04 09:37 55.40969 37.90034 570 ft 17 kts 237°
2026-05-04 09:38 55.40897 37.89848 575 ft 19 kts 235°
2026-05-04 09:38 55.40824 37.89663 569 ft 19 kts 235°
2026-05-04 09:38 55.40747 37.89563 569 ft 14 kts 229°
2026-05-04 09:38 55.40686 37.89397 572 ft 17 kts 236°
2026-05-04 09:39 55.40607 37.89382 570 ft 13 kts 145°
2026-05-04 09:39 55.40514 37.89494 568 ft 19 kts 146°
2026-05-04 09:39 55.40377 37.89658 562 ft 26 kts 146°
2026-05-04 09:39 55.40219 37.89846 558 ft 28 kts 146°
2026-05-04 09:40 55.40052 37.90047 559 ft 30 kts 145°
2026-05-04 09:40 55.39873 37.90262 550 ft 30 kts 146°
2026-05-04 09:40 55.39741 37.90419 547 ft 24 kts 146°
2026-05-04 09:40 55.39650 37.90528 545 ft 12 kts 146°
2026-05-04 09:41 55.39585 37.90497 547 ft 12 kts 239°
2026-05-04 09:42 55.43370 37.84858 3266 ft 183 kts 309°
2026-05-04 09:43 55.44245 37.83050 3798 ft 200 kts 309°
2026-05-04 09:43 55.45161 37.81178 4745 ft 202 kts 310°
2026-05-04 09:43 55.46086 37.79308 5706 ft 203 kts 310°
2026-05-04 09:43 55.47178 37.77705 6565 ft 214 kts 331°
2026-05-04 09:44 55.48653 37.76747 7128 ft 234 kts 338°
2026-05-04 09:44 55.50196 37.75791 8005 ft 241 kts 338°
2026-05-04 09:44 55.51837 37.74917 9019 ft 249 kts 349°
2026-05-04 09:46 55.63553 37.87851 14720 ft 326 kts 64°
2026-05-04 09:46 55.64084 37.91795 15537 ft 334 kts 85°
2026-05-04 09:46 55.63858 37.95909 16359 ft 340 kts 101°
2026-05-04 09:47 55.63330 38.00004 17176 ft 343 kts 102°
2026-05-04 09:47 55.62798 38.04139 17975 ft 346 kts 102°
2026-05-04 09:49 55.58828 38.35199 22025 ft 393 kts 101°
2026-05-04 09:49 55.58449 38.39982 22658 ft 395 kts 90°
2026-05-04 09:49 55.58592 38.44825 23315 ft 395 kts 78°
2026-05-04 09:51 55.66012 38.70854 26708 ft 403 kts 56°
2026-05-04 09:51 55.67430 38.75164 27217 ft 406 kts 56°
2026-05-04 09:51 55.68857 38.79507 27734 ft 409 kts 56°
2026-05-04 09:51 55.70292 38.83883 28235 ft 412 kts 57°
2026-05-04 09:52 55.71737 38.88294 28737 ft 415 kts 57°
2026-05-04 09:52 55.73267 38.92650 29240 ft 416 kts 51°
2026-05-04 09:52 55.75125 38.96566 29700 ft 415 kts 43°
2026-05-04 09:52 55.77121 39.00300 30155 ft 418 kts 43°
2026-05-04 09:53 55.79127 39.04074 30576 ft 421 kts 43°
2026-05-04 09:53 55.81133 39.07870 30989 ft 423 kts 43°
2026-05-04 09:53 55.83151 39.11704 31423 ft 426 kts 44°
2026-05-04 09:53 55.84965 39.15831 31802 ft 433 kts 53°
2026-05-04 09:54 55.86484 39.20621 31990 ft 444 kts 60°
2026-05-04 09:54 55.87836 39.25500 32335 ft 447 kts 60°
2026-05-04 09:54 55.89231 39.30527 32804 ft 446 kts 60°
2026-05-04 09:54 55.90587 39.35410 33310 ft 445 kts 59°
2026-05-04 09:55 55.91961 39.40353 33837 ft 444 kts 59°
2026-05-04 09:55 55.93329 39.45283 34282 ft 443 kts 59°
2026-05-04 09:55 55.94696 39.50219 34668 ft 444 kts 60°
2026-05-04 09:55 55.96062 39.55163 35033 ft 445 kts 60°
2026-05-04 09:56 55.97425 39.60121 35371 ft 446 kts 60°
2026-05-04 09:56 55.98789 39.65096 35703 ft 447 kts 60°
2026-05-04 09:56 56.00174 39.70081 36001 ft 448 kts 59°
2026-05-04 09:56 56.01511 39.75129 36298 ft 452 kts 65°
2026-05-04 09:57 56.02483 39.80494 36605 ft 456 kts 74°
2026-05-04 09:57 56.02982 39.86121 36851 ft 462 kts 84°
2026-05-04 09:57 56.03096 39.91852 36909 ft 460 kts 86°
2026-05-04 09:58 56.03234 40.03254 36907 ft 458 kts 86°
2026-05-04 09:58 56.03363 40.14608 36913 ft 456 kts 86°
2026-05-04 10:00 56.03861 40.59959 36906 ft 457 kts 86°
2026-05-04 10:04 56.04287 41.37444 36908 ft 456 kts 87°
2026-05-04 10:04 56.04314 41.48787 36906 ft 456 kts 87°
2026-05-04 10:05 56.04334 41.60145 36893 ft 456 kts 88°
2026-05-04 10:05 56.04332 41.71496 36896 ft 456 kts 88°
2026-05-04 10:06 56.04315 41.82840 36898 ft 456 kts 88°
2026-05-04 10:06 56.04295 41.94192 36892 ft 456 kts 88°
2026-05-04 10:08 56.04153 42.33880 36891 ft 457 kts 88°
2026-05-04 10:08 56.04082 42.45251 36900 ft 457 kts 89°
2026-05-04 10:09 56.04005 42.56610 36906 ft 457 kts 89°
2026-05-04 10:09 56.03882 42.67973 36903 ft 457 kts 89°
2026-05-04 10:10 56.03722 42.79319 36902 ft 456 kts 89°
2026-05-04 10:10 56.03556 42.90668 36900 ft 456 kts 89°
2026-05-04 10:11 56.03392 43.02007 36902 ft 456 kts 89°
2026-05-04 10:11 56.03215 43.13358 36894 ft 457 kts 90°
2026-05-04 10:12 56.03023 43.24705 36890 ft 457 kts 90°
2026-05-04 10:12 56.03017 43.36048 36888 ft 455 kts 81°
2026-05-04 10:13 56.03801 43.47262 36889 ft 454 kts 80°
2026-05-04 10:13 56.04571 43.58478 36891 ft 455 kts 81°
2026-05-04 10:14 56.05319 43.69720 36893 ft 455 kts 81°
2026-05-04 10:16 56.08207 44.14714 36880 ft 456 kts 81°
2026-05-04 10:16 56.08911 44.25996 36881 ft 456 kts 82°
2026-05-04 10:17 56.09604 44.37289 36881 ft 456 kts 82°
2026-05-04 10:19 56.10936 44.82687 36871 ft 459 kts 90°
2026-05-04 10:19 56.10705 44.94114 36872 ft 459 kts 91°
2026-05-04 10:20 56.10460 45.05542 36876 ft 459 kts 91°
2026-05-04 10:20 56.10190 45.16969 36880 ft 459 kts 91°
2026-05-04 10:21 56.09918 45.28398 36885 ft 459 kts 91°
2026-05-04 10:21 56.09637 45.39833 36886 ft 459 kts 91°
2026-05-04 10:22 56.09198 45.56969 36885 ft 459 kts 91°
2026-05-04 10:23 56.08900 45.68384 36895 ft 458 kts 91°
2026-05-04 10:25 56.07580 46.13826 36920 ft 457 kts 92°
2026-05-04 10:25 56.07224 46.25178 36915 ft 457 kts 92°
2026-05-04 10:26 56.06855 46.36516 36896 ft 456 kts 92°
2026-05-04 10:26 56.06472 46.47837 36896 ft 456 kts 92°
2026-05-04 10:27 56.06234 46.59165 36901 ft 455 kts 89°
2026-05-04 10:27 56.06403 46.70475 36899 ft 455 kts 86°
2026-05-04 10:28 56.06638 46.81778 36897 ft 455 kts 87°
2026-05-04 10:28 56.06768 46.93102 36922 ft 455 kts 88°
2026-05-04 10:29 56.06835 47.04438 36916 ft 456 kts 89°
2026-05-04 10:29 56.06896 47.15778 36920 ft 456 kts 89°
2026-05-04 10:30 56.06952 47.27130 36915 ft 456 kts 88°
2026-05-04 10:30 56.07003 47.38481 36920 ft 456 kts 88°
2026-05-04 10:31 56.07049 47.49839 36925 ft 456 kts 89°
2026-05-04 10:32 56.07113 47.89599 36918 ft 457 kts 89°
2026-05-04 10:33 56.07116 48.00966 36909 ft 456 kts 89°
2026-05-04 10:33 56.07104 48.12240 36906 ft 456 kts 89°
2026-05-04 10:34 56.07090 48.23576 36912 ft 455 kts 89°
2026-05-04 10:34 56.07068 48.34909 36906 ft 455 kts 89°
2026-05-04 10:35 56.07023 48.46222 36916 ft 455 kts 90°
2026-05-04 10:35 56.06961 48.57532 36905 ft 454 kts 90°
2026-05-04 10:36 56.06897 48.68847 36893 ft 454 kts 90°
2026-05-04 10:36 56.06826 48.80159 36892 ft 455 kts 90°
2026-05-04 10:37 56.06747 48.91483 37150 ft 457 kts 90°
2026-05-04 10:37 56.06706 48.97182 37338 ft 459 kts 90°
2026-05-04 10:37 56.06658 49.02903 37526 ft 460 kts 90°
2026-05-04 10:39 56.06304 49.37281 38667 ft 461 kts 91°
2026-05-04 10:39 56.06236 49.43014 38823 ft 461 kts 91°
2026-05-04 10:40 56.06095 49.54425 38899 ft 461 kts 91°
2026-05-04 10:40 56.05943 49.65893 38898 ft 461 kts 91°
2026-05-04 10:41 56.05776 49.77359 38895 ft 461 kts 91°
2026-05-04 10:41 56.05606 49.88828 38900 ft 461 kts 91°
2026-05-04 10:42 56.05419 50.00294 38904 ft 461 kts 91°
2026-05-04 10:42 56.05218 50.11768 38907 ft 462 kts 91°
2026-05-04 10:43 56.05019 50.23252 38914 ft 462 kts 91°
2026-05-04 10:45 56.04087 50.69171 38928 ft 462 kts 92°
2026-05-04 10:45 56.03831 50.80645 38927 ft 461 kts 92°
2026-05-04 10:46 56.03672 50.92114 38922 ft 461 kts 90°
2026-05-04 10:46 56.03766 51.03585 38925 ft 461 kts 88°
2026-05-04 10:47 56.03888 51.15052 38922 ft 461 kts 89°
2026-05-04 10:47 56.03935 51.26527 38924 ft 461 kts 90°
2026-05-04 10:49 56.03921 51.72360 38925 ft 462 kts 90°
2026-05-04 10:50 56.03904 51.83854 38927 ft 462 kts 89°
2026-05-04 10:52 56.05505 52.27783 38920 ft 462 kts 86°
2026-05-04 10:52 56.05853 52.39270 38917 ft 462 kts 86°
2026-05-04 10:54 56.07163 52.85259 38914 ft 463 kts 88°
2026-05-04 10:56 56.08229 53.31326 38916 ft 463 kts 88°
2026-05-04 10:57 56.08468 53.42842 38919 ft 463 kts 88°
2026-05-04 10:57 56.08697 53.54357 38915 ft 463 kts 88°
2026-05-04 10:58 56.08919 53.65867 38915 ft 462 kts 88°
2026-05-04 10:58 56.09139 53.77370 38918 ft 462 kts 89°
2026-05-04 10:59 56.09343 53.88867 38916 ft 462 kts 89°
2026-05-04 10:59 56.09533 54.00369 38914 ft 462 kts 89°
2026-05-04 11:00 56.09705 54.11791 38904 ft 462 kts 89°
2026-05-04 11:02 56.12034 54.57561 38884 ft 463 kts 81°
2026-05-04 11:05 56.19153 55.43198 38881 ft 463 kts 82°
2026-05-04 11:06 56.20059 55.54659 38875 ft 463 kts 82°
2026-05-04 11:06 56.20951 55.66119 38868 ft 464 kts 82°
2026-05-04 11:10 56.26961 56.46627 38869 ft 466 kts 83°
2026-05-04 11:12 56.30181 56.92907 38863 ft 466 kts 83°
2026-05-04 11:12 56.30962 57.04504 38858 ft 467 kts 84°
2026-05-04 11:13 56.31734 57.16117 38859 ft 467 kts 84°
2026-05-04 11:13 56.32491 57.27728 38843 ft 467 kts 84°
2026-05-04 11:14 56.33227 57.39372 38851 ft 468 kts 84°
2026-05-04 11:16 56.36158 57.86417 35270 ft 473 kts 84°
2026-05-04 11:16 56.36509 57.92308 34688 ft 471 kts 84°
2026-05-04 11:16 56.36857 57.98172 34075 ft 470 kts 84°
2026-05-04 11:17 56.37202 58.04016 33414 ft 468 kts 84°
2026-05-04 11:17 56.37540 58.09824 32831 ft 463 kts 84°
2026-05-04 11:19 56.39748 58.48822 28950 ft 429 kts 84°
2026-05-04 11:19 56.40039 58.54133 28449 ft 422 kts 85°
2026-05-04 11:19 56.40323 58.59388 27993 ft 419 kts 84°
2026-05-04 11:19 56.40603 58.64599 27523 ft 415 kts 84°
2026-05-04 11:20 56.40880 58.69772 27068 ft 412 kts 84°
2026-05-04 11:20 56.41153 58.74904 26615 ft 410 kts 84°
2026-05-04 11:20 56.41421 58.80010 26157 ft 407 kts 84°
2026-05-04 11:20 56.41685 58.85079 25689 ft 404 kts 85°
2026-05-04 11:22 56.43483 59.19874 22212 ft 390 kts 83°
2026-05-04 11:22 56.43773 59.24736 21719 ft 387 kts 83°
2026-05-04 11:23 56.44060 59.29555 21235 ft 385 kts 83°
2026-05-04 11:23 56.44339 59.34343 20748 ft 382 kts 83°
2026-05-04 11:24 56.45919 59.62562 17919 ft 371 kts 84°
2026-05-04 11:25 56.46169 59.67193 17444 ft 368 kts 84°
2026-05-04 11:25 56.46415 59.71777 17000 ft 365 kts 84°
2026-05-04 11:25 56.46657 59.76325 16559 ft 362 kts 84°
2026-05-04 11:26 56.47134 59.85327 15684 ft 358 kts 83°
2026-05-04 11:27 56.48722 60.16277 12632 ft 342 kts 84°
2026-05-04 11:28 56.48935 60.20545 12201 ft 338 kts 84°
2026-05-04 11:28 56.49142 60.24705 11781 ft 335 kts 84°
2026-05-04 11:28 56.49348 60.28868 11496 ft 327 kts 84°
2026-05-04 11:28 56.49541 60.32894 11284 ft 316 kts 84°
2026-05-04 11:29 56.49726 60.36822 10804 ft 311 kts 84°
2026-05-04 11:29 56.49909 60.40711 10270 ft 308 kts 84°
2026-05-04 11:29 56.50093 60.44546 9764 ft 305 kts 84°
2026-05-04 11:29 56.50275 60.48345 9251 ft 300 kts 84°
2026-05-04 11:31 56.51337 60.74248 6967 ft 291 kts 100°
2026-05-04 11:33 56.40808 60.87641 6139 ft 271 kts 131°
2026-05-04 11:33 56.39612 60.90263 6005 ft 270 kts 131°
2026-05-04 11:33 56.38411 60.92873 5878 ft 273 kts 131°
2026-05-04 11:34 56.37173 60.95550 5848 ft 280 kts 131°
2026-05-04 11:34 56.36114 60.98484 5850 ft 281 kts 115°
2026-05-04 11:34 56.35595 61.01876 5856 ft 281 kts 99°
2026-05-04 11:34 56.35285 61.05362 5856 ft 282 kts 99°
2026-05-04 11:35 56.35171 61.08866 5851 ft 281 kts 80°
2026-05-04 11:35 56.35900 61.12071 5853 ft 277 kts 51°
2026-05-04 11:35 56.37340 61.14276 5773 ft 270 kts 22°
2026-05-04 11:35 56.39110 61.15026 5650 ft 258 kts 356°
2026-05-04 11:36 56.40851 61.14743 5516 ft 247 kts 350°
2026-05-04 11:36 56.42530 61.14420 5392 ft 245 kts 350°
2026-05-04 11:36 56.44206 61.14104 5266 ft 238 kts 351°
2026-05-04 11:36 56.45830 61.13803 5139 ft 233 kts 351°
2026-05-04 11:37 56.47426 61.13511 5019 ft 229 kts 349°
2026-05-04 11:37 56.49007 61.13219 4905 ft 228 kts 350°
2026-05-04 11:37 56.50586 61.12922 4775 ft 228 kts 350°
2026-05-04 11:37 56.52152 61.12627 4650 ft 222 kts 350°
2026-05-04 11:38 56.53664 61.12436 4516 ft 215 kts 357°
2026-05-04 11:38 56.55149 61.12458 4380 ft 213 kts 356°
2026-05-04 11:38 56.56624 61.12475 4248 ft 209 kts 356°
2026-05-04 11:38 56.58072 61.12486 4119 ft 207 kts 356°
2026-05-04 11:39 56.59509 61.12493 3988 ft 207 kts 356°
2026-05-04 11:39 56.60937 61.12499 3860 ft 202 kts 356°
2026-05-04 11:40 56.68113 61.11876 3361 ft 166 kts 351°
2026-05-04 11:41 56.69257 61.11679 3360 ft 165 kts 351°
2026-05-04 11:41 56.70393 61.11484 3366 ft 164 kts 351°
2026-05-04 11:41 56.71479 61.10983 3364 ft 160 kts 332°
2026-05-04 11:41 56.72356 61.09777 3364 ft 158 kts 310°
2026-05-04 11:42 56.72899 61.08077 3358 ft 152 kts 289°
2026-05-04 11:42 56.73061 61.06266 3288 ft 140 kts 275°
2026-05-04 11:42 56.73134 61.04562 3168 ft 129 kts 275°
2026-05-04 11:42 56.73201 61.02980 3013 ft 123 kts 275°
2026-05-04 11:43 56.73266 61.01445 2858 ft 120 kts 275°
2026-05-04 11:43 56.73330 60.99931 2703 ft 120 kts 275°
2026-05-04 11:43 56.73392 60.98413 2546 ft 119 kts 275°
2026-05-04 11:43 56.73458 60.96912 2382 ft 121 kts 277°
2026-05-04 11:44 56.73527 60.95361 2223 ft 124 kts 277°
2026-05-04 11:44 56.73588 60.93795 2052 ft 124 kts 278°
2026-05-04 11:44 56.73655 60.92227 1881 ft 125 kts 275°
2026-05-04 11:44 56.73721 60.90653 1701 ft 125 kts 276°
2026-05-04 11:45 56.73782 60.89081 1541 ft 123 kts 277°
2026-05-04 11:45 56.73847 60.87545 1381 ft 122 kts 277°
2026-05-04 11:45 56.73911 60.86026 1216 ft 119 kts 278°
2026-05-04 11:45 56.73971 60.84511 1050 ft 121 kts 277°
2026-05-04 11:46 56.74031 60.82990 882 ft 120 kts 277°
2026-05-04 11:46 56.74090 60.81492 783 ft 113 kts 277°
2026-05-04 11:46 56.74137 60.80324 779 ft 68 kts 274°
2026-05-04 11:46 56.74162 60.79698 779 ft 40 kts 274°
2026-05-04 11:47 56.74179 60.79270 781 ft 20 kts 274°
2026-05-04 11:47 56.74188 60.79114 781 ft 10 kts 292°
2026-05-04 11:47 56.74250 60.79100 781 ft 10 kts 10°
2026-05-04 11:47 56.74327 60.79124 781 ft 12 kts
2026-05-04 11:48 56.74416 60.79152 781 ft 14 kts
2026-05-04 11:48 56.74516 60.79187 779 ft 15 kts
2026-05-04 11:48 56.74629 60.79188 779 ft 17 kts 360°
2026-05-04 11:48 56.74753 60.79186 779 ft 19 kts 359°
2026-05-04 11:49 56.74846 60.79190 779 ft 9 kts 13°
2026-05-04 11:49 56.74864 60.79312 779 ft 13 kts 92°
2026-05-04 11:49 56.74858 60.79488 779 ft 15 kts 94°
2026-05-04 11:49 56.74856 60.79682 779 ft 16 kts 90°
2026-05-04 11:50 56.74855 60.79892 779 ft 17 kts 92°
2026-05-04 11:50 56.74856 60.80040 779 ft 8 kts 77°
2026-05-04 11:50 56.74891 60.80046 779 ft 6 kts 351°
2026-05-04 11:50 56.74933 60.80046 780 ft 0 kts